Year,Month,Day,Hour,Minute,Value (Times are PST for temperature in C)
2007,05,30,00,00,16.60
2007,05,30,00,01,16.60
2007,05,30,00,02,16.60
2007,05,30,00,03,16.40
2007,05,30,00,04,16.40
2007,05,30,00,05,16.40
2007,05,30,00,06,16.40
2007,05,30,00,07,16.30
2007,05,30,00,08,16.30
2007,05,30,00,09,16.30
2007,05,30,00,10,16.30
2007,05,30,00,11,16.20
2007,05,30,00,12,16.20
2007,05,30,00,13,16.20
2007,05,30,00,14,16.20
2007,05,30,00,15,16.20
2007,05,30,00,16,16.20
2007,05,30,00,17,16.20
2007,05,30,00,18,16.20
2007,05,30,00,19,16.20
2007,05,30,00,20,16.20
2007,05,30,00,21,16.20
2007,05,30,00,22,16.30
2007,05,30,00,23,16.30
2007,05,30,00,24,16.40
2007,05,30,00,25,16.40
2007,05,30,00,26,16.40
2007,05,30,00,27,16.40
2007,05,30,00,28,16.40
2007,05,30,00,29,16.40
2007,05,30,00,30,16.40
2007,05,30,00,31,16.40
2007,05,30,00,32,16.40
2007,05,30,00,33,16.40
2007,05,30,00,34,16.40
2007,05,30,00,35,16.30
2007,05,30,00,36,16.30
2007,05,30,00,37,16.30
2007,05,30,00,38,16.30
2007,05,30,00,39,16.20
2007,05,30,00,40,16.20
2007,05,30,00,41,16.20
2007,05,30,00,42,16.10
2007,05,30,00,43,16.10
2007,05,30,00,44,16.10
2007,05,30,00,45,16.10
2007,05,30,00,46,16.00
2007,05,30,00,47,15.90
2007,05,30,00,48,15.80
2007,05,30,00,49,15.80
2007,05,30,00,50,15.80
2007,05,30,00,51,15.80
2007,05,30,00,52,15.80
2007,05,30,00,53,15.70
2007,05,30,00,54,15.70
2007,05,30,00,55,15.60
2007,05,30,00,56,15.60
2007,05,30,00,57,15.60
2007,05,30,00,58,15.60
2007,05,30,00,59,15.50
2007,05,30,01,00,15.50
2007,05,30,01,01,15.40
2007,05,30,01,02,15.40
2007,05,30,01,03,15.30
2007,05,30,01,04,15.30
2007,05,30,01,05,15.30
2007,05,30,01,06,15.30
2007,05,30,01,07,15.30
2007,05,30,01,08,15.20
2007,05,30,01,09,15.20
2007,05,30,01,10,15.10
2007,05,30,01,11,15.10
2007,05,30,01,12,15.00
2007,05,30,01,13,15.00
2007,05,30,01,14,15.00
2007,05,30,01,15,14.90
2007,05,30,01,16,14.90
2007,05,30,01,17,14.90
2007,05,30,01,18,14.80
2007,05,30,01,19,14.80
2007,05,30,01,20,14.80
2007,05,30,01,21,14.80
2007,05,30,01,22,14.80
2007,05,30,01,23,14.90
2007,05,30,01,24,14.90
2007,05,30,01,25,14.90
2007,05,30,01,26,15.00
2007,05,30,01,27,15.00
2007,05,30,01,28,15.00
2007,05,30,01,29,15.10
2007,05,30,01,30,15.10
2007,05,30,01,31,15.10
2007,05,30,01,32,15.10
2007,05,30,01,33,15.10
2007,05,30,01,34,15.00
2007,05,30,01,35,15.00
2007,05,30,01,36,15.00
2007,05,30,01,37,15.00
2007,05,30,01,38,15.00
2007,05,30,01,39,15.00
2007,05,30,01,40,14.90
2007,05,30,01,41,14.90
2007,05,30,01,42,14.90
2007,05,30,01,43,14.90
2007,05,30,01,44,14.90
2007,05,30,01,45,14.90
2007,05,30,01,46,14.90
2007,05,30,01,47,14.90
2007,05,30,01,48,15.00
2007,05,30,01,49,15.00
2007,05,30,01,50,15.00
2007,05,30,01,51,15.00
2007,05,30,01,52,15.00
2007,05,30,01,53,15.00
2007,05,30,01,54,15.00
2007,05,30,01,55,14.90
2007,05,30,01,56,14.90
2007,05,30,01,57,14.90
2007,05,30,01,58,14.90
2007,05,30,01,59,14.80
2007,05,30,02,00,14.80
2007,05,30,02,01,14.80
2007,05,30,02,02,14.80
2007,05,30,02,03,14.70
2007,05,30,02,04,14.70
2007,05,30,02,05,14.70
2007,05,30,02,06,14.70
2007,05,30,02,07,14.70
2007,05,30,02,08,14.70
2007,05,30,02,09,14.70
2007,05,30,02,10,14.70
2007,05,30,02,11,14.70
2007,05,30,02,12,14.70
2007,05,30,02,13,14.70
2007,05,30,02,14,14.60
2007,05,30,02,15,14.60
2007,05,30,02,16,14.60
2007,05,30,02,17,14.60
2007,05,30,02,18,14.60
2007,05,30,02,19,14.60
2007,05,30,02,20,14.60
2007,05,30,02,21,14.60
2007,05,30,02,22,14.60
2007,05,30,02,23,14.60
2007,05,30,02,24,14.60
2007,05,30,02,25,14.60
2007,05,30,02,26,14.60
2007,05,30,02,27,14.50
2007,05,30,02,28,14.50
2007,05,30,02,29,14.50
2007,05,30,02,30,14.50
2007,05,30,02,31,14.50
2007,05,30,02,32,14.60
2007,05,30,02,33,14.60
2007,05,30,02,34,14.60
2007,05,30,02,35,14.50
2007,05,30,02,36,14.50
2007,05,30,02,37,14.50
2007,05,30,02,38,14.50
2007,05,30,02,39,14.50
2007,05,30,02,40,14.50
2007,05,30,02,41,14.50
2007,05,30,02,42,14.40
2007,05,30,02,43,14.40
2007,05,30,02,44,14.40
2007,05,30,02,45,14.40
2007,05,30,02,46,14.40
2007,05,30,02,47,14.40
2007,05,30,02,48,14.40
2007,05,30,02,49,14.40
2007,05,30,02,50,14.40
2007,05,30,02,51,14.40
2007,05,30,02,52,14.40
2007,05,30,02,53,14.40
2007,05,30,02,54,14.40
2007,05,30,02,55,14.40
2007,05,30,02,56,14.40
2007,05,30,02,57,14.40
2007,05,30,02,58,14.30
2007,05,30,02,59,14.30
2007,05,30,03,00,14.30
2007,05,30,03,01,14.20
2007,05,30,03,02,14.20
2007,05,30,03,03,14.20
2007,05,30,03,04,14.20
2007,05,30,03,05,14.20
2007,05,30,03,06,14.20
2007,05,30,03,07,14.10
2007,05,30,03,08,14.10
2007,05,30,03,09,14.10
2007,05,30,03,10,14.10
2007,05,30,03,11,14.10
2007,05,30,03,12,14.20
2007,05,30,03,13,14.20
2007,05,30,03,14,14.20
2007,05,30,03,15,14.20
2007,05,30,03,16,14.20
2007,05,30,03,17,14.30
2007,05,30,03,18,14.40
2007,05,30,03,19,14.40
2007,05,30,03,20,14.50
2007,05,30,03,21,14.50
2007,05,30,03,22,14.50
2007,05,30,03,23,14.50
2007,05,30,03,24,14.60
2007,05,30,03,25,14.60
2007,05,30,03,26,14.60
2007,05,30,03,27,14.60
2007,05,30,03,28,14.60
2007,05,30,03,29,14.60
2007,05,30,03,30,14.60
2007,05,30,03,31,14.60
2007,05,30,03,32,14.60
2007,05,30,03,33,14.60
2007,05,30,03,34,14.60
2007,05,30,03,35,14.60
2007,05,30,03,36,14.60
2007,05,30,03,37,14.50
2007,05,30,03,38,14.50
2007,05,30,03,39,14.50
2007,05,30,03,40,14.50
2007,05,30,03,41,14.50
2007,05,30,03,42,14.40
2007,05,30,03,43,14.40
2007,05,30,03,44,14.40
2007,05,30,03,45,14.40
2007,05,30,03,46,14.40
2007,05,30,03,47,14.40
2007,05,30,03,48,14.40
2007,05,30,03,49,14.40
2007,05,30,03,50,14.40
2007,05,30,03,51,14.30
2007,05,30,03,52,14.30
2007,05,30,03,53,14.30
2007,05,30,03,54,14.30
2007,05,30,03,55,14.30
2007,05,30,03,56,14.20
2007,05,30,03,57,14.20
2007,05,30,03,58,14.20
2007,05,30,03,59,14.20
2007,05,30,04,00,14.20
2007,05,30,04,01,14.20
2007,05,30,04,02,14.20
2007,05,30,04,03,14.20
2007,05,30,04,04,14.20
2007,05,30,04,05,14.20
2007,05,30,04,06,14.20
2007,05,30,04,07,14.20
2007,05,30,04,08,14.20
2007,05,30,04,09,14.20
2007,05,30,04,10,14.10
2007,05,30,04,11,14.10
2007,05,30,04,12,14.10
2007,05,30,04,13,14.00
2007,05,30,04,14,14.00
2007,05,30,04,15,14.00
2007,05,30,04,16,13.90
2007,05,30,04,17,13.90
2007,05,30,04,18,13.80
2007,05,30,04,19,13.80
2007,05,30,04,20,13.70
2007,05,30,04,21,13.70
2007,05,30,04,22,13.70
2007,05,30,04,23,13.70
2007,05,30,04,24,13.70
2007,05,30,04,25,13.70
2007,05,30,04,26,13.60
2007,05,30,04,27,13.60
2007,05,30,04,28,13.60
2007,05,30,04,29,13.60
2007,05,30,04,30,13.60
2007,05,30,04,31,13.60
2007,05,30,04,32,13.60
2007,05,30,04,33,13.60
2007,05,30,04,34,13.60
2007,05,30,04,35,13.70
2007,05,30,04,36,13.70
2007,05,30,04,37,13.70
2007,05,30,04,38,13.70
2007,05,30,04,39,13.70
2007,05,30,04,40,13.70
2007,05,30,04,41,13.70
2007,05,30,04,42,13.70
2007,05,30,04,43,13.70
2007,05,30,04,44,13.70
2007,05,30,04,45,13.70
2007,05,30,04,46,13.70
2007,05,30,04,47,13.60
2007,05,30,04,48,13.60
2007,05,30,04,49,13.60
2007,05,30,04,50,13.50
2007,05,30,04,51,13.50
2007,05,30,04,52,13.50
2007,05,30,04,53,13.50
2007,05,30,04,54,13.50
2007,05,30,04,55,13.40
2007,05,30,04,56,13.40
2007,05,30,04,57,13.40
2007,05,30,04,58,13.40
2007,05,30,04,59,13.30
2007,05,30,05,00,13.30
2007,05,30,05,01,13.30
2007,05,30,05,02,13.30
2007,05,30,05,03,13.30
2007,05,30,05,04,13.30
2007,05,30,05,05,13.30
2007,05,30,05,06,13.30
2007,05,30,05,07,13.30
2007,05,30,05,08,13.20
2007,05,30,05,09,13.20
2007,05,30,05,10,13.20
2007,05,30,05,11,13.10
2007,05,30,05,12,13.10
2007,05,30,05,13,13.00
2007,05,30,05,14,13.00
2007,05,30,05,15,13.00
2007,05,30,05,16,12.90
2007,05,30,05,17,12.90
2007,05,30,05,18,12.90
2007,05,30,05,19,12.90
2007,05,30,05,20,12.80
2007,05,30,05,21,12.80
2007,05,30,05,22,12.80
2007,05,30,05,23,12.80
2007,05,30,05,24,12.80
2007,05,30,05,25,12.80
2007,05,30,05,26,12.80
2007,05,30,05,27,12.80
2007,05,30,05,28,12.80
2007,05,30,05,29,12.80
2007,05,30,05,30,12.80
2007,05,30,05,31,12.80
2007,05,30,05,32,12.80
2007,05,30,05,33,12.80
2007,05,30,05,34,12.80
2007,05,30,05,35,12.80
2007,05,30,05,36,12.80
2007,05,30,05,37,12.80
2007,05,30,05,38,12.90
2007,05,30,05,39,12.90
2007,05,30,05,40,12.90
2007,05,30,05,41,12.90
2007,05,30,05,42,12.90
2007,05,30,05,43,12.90
2007,05,30,05,44,12.90
2007,05,30,05,45,12.90
2007,05,30,05,46,12.90
2007,05,30,05,47,12.90
2007,05,30,05,48,12.90
2007,05,30,05,49,13.00
2007,05,30,05,50,13.00
2007,05,30,05,51,13.00
2007,05,30,05,52,13.00
2007,05,30,05,53,13.00
2007,05,30,05,54,13.00
2007,05,30,05,55,13.00
2007,05,30,05,56,13.10
2007,05,30,05,57,13.10
2007,05,30,05,58,13.10
2007,05,30,05,59,13.20
2007,05,30,06,00,13.20
2007,05,30,06,01,13.20
2007,05,30,06,02,13.30
2007,05,30,06,03,13.30
2007,05,30,06,04,13.30
2007,05,30,06,05,13.30
2007,05,30,06,06,13.30
2007,05,30,06,07,13.30
2007,05,30,06,08,13.30
2007,05,30,06,09,13.30
2007,05,30,06,10,13.30
2007,05,30,06,11,13.30
2007,05,30,06,12,13.30
2007,05,30,06,13,13.30
2007,05,30,06,14,13.30
2007,05,30,06,15,13.30
2007,05,30,06,16,13.30
2007,05,30,06,17,13.30
2007,05,30,06,18,13.30
2007,05,30,06,19,13.30
2007,05,30,06,20,13.30
2007,05,30,06,21,13.30
2007,05,30,06,22,13.30
2007,05,30,06,23,13.30
2007,05,30,06,24,13.30
2007,05,30,06,25,13.30
2007,05,30,06,26,13.30
2007,05,30,06,27,13.30
2007,05,30,06,28,13.30
2007,05,30,06,29,13.30
2007,05,30,06,30,13.40
2007,05,30,06,31,13.40
2007,05,30,06,32,13.50
2007,05,30,06,33,13.50
2007,05,30,06,34,13.60
2007,05,30,06,35,13.70
2007,05,30,06,36,13.70
2007,05,30,06,37,13.80
2007,05,30,06,38,13.90
2007,05,30,06,39,13.90
2007,05,30,06,40,13.90
2007,05,30,06,41,14.00
2007,05,30,06,42,14.00
2007,05,30,06,43,14.10
2007,05,30,06,44,14.10
2007,05,30,06,45,14.10
2007,05,30,06,46,14.20
2007,05,30,06,47,14.20
2007,05,30,06,48,14.20
2007,05,30,06,49,14.20
2007,05,30,06,50,14.30
2007,05,30,06,51,14.40
2007,05,30,06,52,14.50
2007,05,30,06,53,14.50
2007,05,30,06,54,14.60
2007,05,30,06,55,14.60
2007,05,30,06,56,14.60
2007,05,30,06,57,14.70
2007,05,30,06,58,14.70
2007,05,30,06,59,14.80
2007,05,30,07,00,14.80
2007,05,30,07,01,14.80
2007,05,30,07,02,14.90
2007,05,30,07,03,14.90
2007,05,30,07,04,15.00
2007,05,30,07,05,15.00
2007,05,30,07,06,15.10
2007,05,30,07,07,15.10
2007,05,30,07,08,15.20
2007,05,30,07,09,15.20
2007,05,30,07,10,15.20
2007,05,30,07,11,15.20
2007,05,30,07,12,15.30
2007,05,30,07,13,15.30
2007,05,30,07,14,15.40
2007,05,30,07,15,15.40
2007,05,30,07,16,15.50
2007,05,30,07,17,15.50
2007,05,30,07,18,15.60
2007,05,30,07,19,15.60
2007,05,30,07,20,15.70
2007,05,30,07,21,15.70
2007,05,30,07,22,15.80
2007,05,30,07,23,15.80
2007,05,30,07,24,15.80
2007,05,30,07,25,15.90
2007,05,30,07,26,16.00
2007,05,30,07,27,16.10
2007,05,30,07,28,16.20
2007,05,30,07,29,16.20
2007,05,30,07,30,16.30
2007,05,30,07,31,16.40
2007,05,30,07,32,16.40
2007,05,30,07,33,16.50
2007,05,30,07,34,16.60
2007,05,30,07,35,16.60
2007,05,30,07,36,16.70
2007,05,30,07,37,16.70
2007,05,30,07,38,16.80
2007,05,30,07,39,16.90
2007,05,30,07,40,16.90
2007,05,30,07,41,17.00
2007,05,30,07,42,17.10
2007,05,30,07,43,17.20
2007,05,30,07,44,17.30
2007,05,30,07,45,17.30
2007,05,30,07,46,17.10
2007,05,30,07,47,16.90
2007,05,30,07,48,16.70
2007,05,30,07,49,16.50
2007,05,30,07,50,16.30
2007,05,30,07,51,16.20
2007,05,30,07,52,16.10
2007,05,30,07,53,15.90
2007,05,30,07,54,15.80
2007,05,30,07,55,15.80
2007,05,30,07,56,15.80
2007,05,30,07,57,15.80
2007,05,30,07,58,15.80
2007,05,30,07,59,15.80
2007,05,30,08,00,15.80
2007,05,30,08,01,15.90
2007,05,30,08,02,16.00
2007,05,30,08,03,16.10
2007,05,30,08,04,16.20
2007,05,30,08,05,16.30
2007,05,30,08,06,16.40
2007,05,30,08,07,16.50
2007,05,30,08,08,16.70
2007,05,30,08,09,16.90
2007,05,30,08,10,17.10
2007,05,30,08,11,17.30
2007,05,30,08,12,17.40
2007,05,30,08,13,17.60
2007,05,30,08,14,17.70
2007,05,30,08,15,17.70
2007,05,30,08,16,17.80
2007,05,30,08,17,17.90
2007,05,30,08,18,18.00
2007,05,30,08,19,18.20
2007,05,30,08,20,18.20
2007,05,30,08,21,18.20
2007,05,30,08,22,18.20
2007,05,30,08,23,18.20
2007,05,30,08,24,18.20
2007,05,30,08,25,18.20
2007,05,30,08,26,18.20
2007,05,30,08,27,18.20
2007,05,30,08,28,18.30
2007,05,30,08,29,18.40
2007,05,30,08,30,18.50
2007,05,30,08,31,18.60
2007,05,30,08,32,18.70
2007,05,30,08,33,18.60
2007,05,30,08,34,18.60
2007,05,30,08,35,18.50
2007,05,30,08,36,18.50
2007,05,30,08,37,18.50
2007,05,30,08,38,18.50
2007,05,30,08,39,18.50
2007,05,30,08,40,18.50
2007,05,30,08,41,18.50
2007,05,30,08,42,18.50
2007,05,30,08,43,18.60
2007,05,30,08,44,18.60
2007,05,30,08,45,18.70
2007,05,30,08,46,18.90
2007,05,30,08,47,18.90
2007,05,30,08,48,18.90
2007,05,30,08,49,18.90
2007,05,30,08,50,18.80
2007,05,30,08,51,18.90
2007,05,30,08,52,19.00
2007,05,30,08,53,19.10
2007,05,30,08,54,19.10
2007,05,30,08,55,19.10
2007,05,30,08,56,19.10
2007,05,30,08,57,19.10
2007,05,30,08,58,19.10
2007,05,30,08,59,19.10
2007,05,30,09,00,19.10
2007,05,30,09,01,19.10
2007,05,30,09,02,19.10
2007,05,30,09,03,19.10
2007,05,30,09,04,19.10
2007,05,30,09,05,19.10
2007,05,30,09,06,19.20
2007,05,30,09,07,19.30
2007,05,30,09,08,19.30
2007,05,30,09,09,19.40
2007,05,30,09,10,19.50
2007,05,30,09,11,19.60
2007,05,30,09,12,19.60
2007,05,30,09,13,19.50
2007,05,30,09,14,19.50
2007,05,30,09,15,19.60
2007,05,30,09,16,19.60
2007,05,30,09,17,19.60
2007,05,30,09,18,19.60
2007,05,30,09,19,19.50
2007,05,30,09,20,19.50
2007,05,30,09,21,19.50
2007,05,30,09,22,19.50
2007,05,30,09,23,19.50
2007,05,30,09,24,19.60
2007,05,30,09,25,19.70
2007,05,30,09,26,19.80
2007,05,30,09,27,19.90
2007,05,30,09,28,19.90
2007,05,30,09,29,20.00
2007,05,30,09,30,20.10
2007,05,30,09,31,20.20
2007,05,30,09,32,20.20
2007,05,30,09,33,20.20
2007,05,30,09,34,20.20
2007,05,30,09,35,20.20
2007,05,30,09,36,20.30
2007,05,30,09,37,20.40
2007,05,30,09,38,20.40
2007,05,30,09,39,20.50
2007,05,30,09,40,20.50
2007,05,30,09,41,20.50
2007,05,30,09,42,20.50
2007,05,30,09,43,20.40
2007,05,30,09,44,20.30
2007,05,30,09,45,20.30
2007,05,30,09,46,20.30
2007,05,30,09,47,20.40
2007,05,30,09,48,20.30
2007,05,30,09,49,20.10
2007,05,30,09,50,19.90
2007,05,30,09,51,19.70
2007,05,30,09,52,19.40
2007,05,30,09,53,19.20
2007,05,30,09,54,19.10
2007,05,30,09,55,18.90
2007,05,30,09,56,18.90
2007,05,30,09,57,18.90
2007,05,30,09,58,18.90
2007,05,30,09,59,18.80
2007,05,30,10,00,18.80
2007,05,30,10,01,18.70
2007,05,30,10,02,18.70
2007,05,30,10,03,18.60
2007,05,30,10,04,18.60
2007,05,30,10,05,18.60
2007,05,30,10,06,18.60
2007,05,30,10,07,18.60
2007,05,30,10,08,18.60
2007,05,30,10,09,18.60
2007,05,30,10,10,18.60
2007,05,30,10,11,18.50
2007,05,30,10,12,18.40
2007,05,30,10,13,18.40
2007,05,30,10,14,18.40
2007,05,30,10,15,18.50
2007,05,30,10,16,18.50
2007,05,30,10,17,18.50
2007,05,30,10,18,18.40
2007,05,30,10,19,18.40
2007,05,30,10,20,18.20
2007,05,30,10,21,18.10
2007,05,30,10,22,17.90
2007,05,30,10,23,17.80
2007,05,30,10,24,17.70
2007,05,30,10,25,17.70
2007,05,30,10,26,17.70
2007,05,30,10,27,17.70
2007,05,30,10,28,17.80
2007,05,30,10,29,17.90
2007,05,30,10,30,17.90
2007,05,30,10,31,17.90
2007,05,30,10,32,17.90
2007,05,30,10,33,17.90
2007,05,30,10,34,17.90
2007,05,30,10,35,17.90
2007,05,30,10,36,17.90
2007,05,30,10,37,17.80
2007,05,30,10,38,17.80
2007,05,30,10,39,17.70
2007,05,30,10,40,17.70
2007,05,30,10,41,17.70
2007,05,30,10,42,17.80
2007,05,30,10,43,17.80
2007,05,30,10,44,17.90
2007,05,30,10,45,17.90
2007,05,30,10,46,17.90
2007,05,30,10,47,17.90
2007,05,30,10,48,17.90
2007,05,30,10,49,17.90
2007,05,30,10,50,17.80
2007,05,30,10,51,17.70
2007,05,30,10,52,17.70
2007,05,30,10,53,17.70
2007,05,30,10,54,17.60
2007,05,30,10,55,17.60
2007,05,30,10,56,17.70
2007,05,30,10,57,17.80
2007,05,30,10,58,17.80
2007,05,30,10,59,17.90
2007,05,30,11,00,17.90
2007,05,30,11,01,17.80
2007,05,30,11,02,17.70
2007,05,30,11,03,17.70
2007,05,30,11,04,17.70
2007,05,30,11,05,17.70
2007,05,30,11,06,17.70
2007,05,30,11,07,17.80
2007,05,30,11,08,17.90
2007,05,30,11,09,17.90
2007,05,30,11,10,17.90
2007,05,30,11,11,17.90
2007,05,30,11,12,18.00
2007,05,30,11,13,18.10
2007,05,30,11,14,18.10
2007,05,30,11,15,18.20
2007,05,30,11,16,18.40
2007,05,30,11,17,18.50
2007,05,30,11,18,18.50
2007,05,30,11,19,18.60
2007,05,30,11,20,18.60
2007,05,30,11,21,18.60
2007,05,30,11,22,18.70
2007,05,30,11,23,18.80
2007,05,30,11,24,18.80
2007,05,30,11,25,18.90
2007,05,30,11,26,18.90
2007,05,30,11,27,19.00
2007,05,30,11,28,19.20
2007,05,30,11,29,19.30
2007,05,30,11,30,19.40
2007,05,30,11,31,19.40
2007,05,30,11,32,19.40
2007,05,30,11,33,19.50
2007,05,30,11,34,19.50
2007,05,30,11,35,19.50
2007,05,30,11,36,19.40
2007,05,30,11,37,19.50
2007,05,30,11,38,19.50
2007,05,30,11,39,19.50
2007,05,30,11,40,19.50
2007,05,30,11,41,19.50
2007,05,30,11,42,19.50
2007,05,30,11,43,19.40
2007,05,30,11,44,19.30
2007,05,30,11,45,19.30
2007,05,30,11,46,19.40
2007,05,30,11,47,19.50
2007,05,30,11,48,19.50
2007,05,30,11,49,19.50
2007,05,30,11,50,19.60
2007,05,30,11,51,19.60
2007,05,30,11,52,19.60
2007,05,30,11,53,19.60
2007,05,30,11,54,19.70
2007,05,30,11,55,19.70
2007,05,30,11,56,19.60
2007,05,30,11,57,19.60
2007,05,30,11,58,19.60
2007,05,30,11,59,19.40
2007,05,30,12,00,19.30
2007,05,30,12,01,19.10
2007,05,30,12,02,19.10
2007,05,30,12,03,19.10
2007,05,30,12,04,19.20
2007,05,30,12,05,19.20
2007,05,30,12,06,19.10
2007,05,30,12,07,19.10
2007,05,30,12,08,19.10
2007,05,30,12,09,19.10
2007,05,30,12,10,19.10
2007,05,30,12,11,19.10
2007,05,30,12,12,19.10
2007,05,30,12,13,19.10
2007,05,30,12,14,19.10
2007,05,30,12,15,19.00
2007,05,30,12,16,18.90
2007,05,30,12,17,18.70
2007,05,30,12,18,18.70
2007,05,30,12,19,18.80
2007,05,30,12,20,18.80
2007,05,30,12,21,18.90
2007,05,30,12,22,18.90
2007,05,30,12,23,19.00
2007,05,30,12,24,19.10
2007,05,30,12,25,19.10
2007,05,30,12,26,19.10
2007,05,30,12,27,19.20
2007,05,30,12,28,19.20
2007,05,30,12,29,19.20
2007,05,30,12,30,19.20
2007,05,30,12,31,19.20
2007,05,30,12,32,19.10
2007,05,30,12,33,19.10
2007,05,30,12,34,19.00
2007,05,30,12,35,18.90
2007,05,30,12,36,18.90
2007,05,30,12,37,18.90
2007,05,30,12,38,18.90
2007,05,30,12,39,18.90
2007,05,30,12,40,19.00
2007,05,30,12,41,19.10
2007,05,30,12,42,19.10
2007,05,30,12,43,19.20
2007,05,30,12,44,19.20
2007,05,30,12,45,19.30
2007,05,30,12,46,19.30
2007,05,30,12,47,19.30
2007,05,30,12,48,19.20
2007,05,30,12,49,19.10
2007,05,30,12,50,19.00
2007,05,30,12,51,19.00
2007,05,30,12,52,19.10
2007,05,30,12,53,19.10
2007,05,30,12,54,19.10
2007,05,30,12,55,19.10
2007,05,30,12,56,19.20
2007,05,30,12,57,19.30
2007,05,30,12,58,19.30
2007,05,30,12,59,19.30
2007,05,30,13,00,19.40
2007,05,30,13,01,19.50
2007,05,30,13,02,19.40
2007,05,30,13,03,19.40
2007,05,30,13,04,19.40
2007,05,30,13,05,19.50
2007,05,30,13,06,19.50
2007,05,30,13,07,19.50
2007,05,30,13,08,19.60
2007,05,30,13,09,19.50
2007,05,30,13,10,19.50
2007,05,30,13,11,19.50
2007,05,30,13,12,19.50
2007,05,30,13,13,19.50
2007,05,30,13,14,19.40
2007,05,30,13,15,19.40
2007,05,30,13,16,19.40
2007,05,30,13,17,19.30
2007,05,30,13,18,19.30
2007,05,30,13,19,19.40
2007,05,30,13,20,19.60
2007,05,30,13,21,19.80
2007,05,30,13,22,19.80
2007,05,30,13,23,19.80
2007,05,30,13,24,19.90
2007,05,30,13,25,20.00
2007,05,30,13,26,19.90
2007,05,30,13,27,19.90
2007,05,30,13,28,19.90
2007,05,30,13,29,19.90
2007,05,30,13,30,19.80
2007,05,30,13,31,19.70
2007,05,30,13,32,19.60
2007,05,30,13,33,19.50
2007,05,30,13,34,19.50
2007,05,30,13,35,19.50
2007,05,30,13,36,19.60
2007,05,30,13,37,19.80
2007,05,30,13,38,19.90
2007,05,30,13,39,20.00
2007,05,30,13,40,20.20
2007,05,30,13,41,20.20
2007,05,30,13,42,20.20
2007,05,30,13,43,20.20
2007,05,30,13,44,20.20
2007,05,30,13,45,20.20
2007,05,30,13,46,20.20
2007,05,30,13,47,20.20
2007,05,30,13,48,20.30
2007,05,30,13,49,20.20
2007,05,30,13,50,20.40
2007,05,30,13,51,20.50
2007,05,30,13,52,20.60
2007,05,30,13,53,20.60
2007,05,30,13,54,20.60
2007,05,30,13,55,20.60
2007,05,30,13,56,20.60
2007,05,30,13,57,20.60
2007,05,30,13,58,20.50
2007,05,30,13,59,20.60
2007,05,30,14,00,20.60
2007,05,30,14,01,20.60
2007,05,30,14,02,20.80
2007,05,30,14,03,20.80
2007,05,30,14,04,20.80
2007,05,30,14,05,20.80
2007,05,30,14,06,20.80
2007,05,30,14,07,20.80
2007,05,30,14,08,20.80
2007,05,30,14,09,20.90
2007,05,30,14,10,20.90
2007,05,30,14,11,21.00
2007,05,30,14,12,20.90
2007,05,30,14,13,20.80
2007,05,30,14,14,20.70
2007,05,30,14,15,20.50
2007,05,30,14,16,20.50
2007,05,30,14,17,20.50
2007,05,30,14,18,20.50
2007,05,30,14,19,20.50
2007,05,30,14,20,20.50
2007,05,30,14,21,20.60
2007,05,30,14,22,20.60
2007,05,30,14,23,20.70
2007,05,30,14,24,20.70
2007,05,30,14,25,20.70
2007,05,30,14,26,20.70
2007,05,30,14,27,20.70
2007,05,30,14,28,20.60
2007,05,30,14,29,20.60
2007,05,30,14,30,20.50
2007,05,30,14,31,20.50
2007,05,30,14,32,20.40
2007,05,30,14,33,20.40
2007,05,30,14,34,20.50
2007,05,30,14,35,20.50
2007,05,30,14,36,20.60
2007,05,30,14,37,20.60
2007,05,30,14,38,20.60
2007,05,30,14,39,20.60
2007,05,30,14,40,20.60
2007,05,30,14,41,20.50
2007,05,30,14,42,20.40
2007,05,30,14,43,20.40
2007,05,30,14,44,20.30
2007,05,30,14,45,20.30
2007,05,30,14,46,20.30
2007,05,30,14,47,20.40
2007,05,30,14,48,20.50
2007,05,30,14,49,20.60
2007,05,30,14,50,20.70
2007,05,30,14,51,20.80
2007,05,30,14,52,20.90
2007,05,30,14,53,21.00
2007,05,30,14,54,21.00
2007,05,30,14,55,21.00
2007,05,30,14,56,20.90
2007,05,30,14,57,20.80
2007,05,30,14,58,20.80
2007,05,30,14,59,20.70
2007,05,30,15,00,20.80
2007,05,30,15,01,20.80
2007,05,30,15,02,21.00
2007,05,30,15,03,21.10
2007,05,30,15,04,21.00
2007,05,30,15,05,21.10
2007,05,30,15,06,21.10
2007,05,30,15,07,21.20
2007,05,30,15,08,21.30
2007,05,30,15,09,21.30
2007,05,30,15,10,21.20
2007,05,30,15,11,21.30
2007,05,30,15,12,21.30
2007,05,30,15,13,21.30
2007,05,30,15,14,21.10
2007,05,30,15,15,21.00
2007,05,30,15,16,21.10
2007,05,30,15,17,21.10
2007,05,30,15,18,21.00
2007,05,30,15,19,21.00
2007,05,30,15,20,21.00
2007,05,30,15,21,21.10
2007,05,30,15,22,21.00
2007,05,30,15,23,21.00
2007,05,30,15,24,20.90
2007,05,30,15,25,20.80
2007,05,30,15,26,20.60
2007,05,30,15,27,20.60
2007,05,30,15,28,20.50
2007,05,30,15,29,20.40
2007,05,30,15,30,20.40
2007,05,30,15,31,20.40
2007,05,30,15,32,20.30
2007,05,30,15,33,20.20
2007,05,30,15,34,20.20
2007,05,30,15,35,20.20
2007,05,30,15,36,20.20
2007,05,30,15,37,20.10
2007,05,30,15,38,19.90
2007,05,30,15,39,19.90
2007,05,30,15,40,19.90
2007,05,30,15,41,19.80
2007,05,30,15,42,19.80
2007,05,30,15,43,19.70
2007,05,30,15,44,19.60
2007,05,30,15,45,19.50
2007,05,30,15,46,19.40
2007,05,30,15,47,19.30
2007,05,30,15,48,19.30
2007,05,30,15,49,19.20
2007,05,30,15,50,19.20
2007,05,30,15,51,19.20
2007,05,30,15,52,19.10
2007,05,30,15,53,19.10
2007,05,30,15,54,19.10
2007,05,30,15,55,19.10
2007,05,30,15,56,19.10
2007,05,30,15,57,19.10
2007,05,30,15,58,19.10
2007,05,30,15,59,19.20
2007,05,30,16,00,19.40
2007,05,30,16,01,19.70
2007,05,30,16,02,19.90
2007,05,30,16,03,20.10
2007,05,30,16,04,20.20
2007,05,30,16,05,20.20
2007,05,30,16,06,20.20
2007,05,30,16,07,20.20
2007,05,30,16,08,20.20
2007,05,30,16,09,20.20
2007,05,30,16,10,20.20
2007,05,30,16,11,20.20
2007,05,30,16,12,20.10
2007,05,30,16,13,19.90
2007,05,30,16,14,19.90
2007,05,30,16,15,20.00
2007,05,30,16,16,20.10
2007,05,30,16,17,20.20
2007,05,30,16,18,20.20
2007,05,30,16,19,20.20
2007,05,30,16,20,20.30
2007,05,30,16,21,20.50
2007,05,30,16,22,20.70
2007,05,30,16,23,20.90
2007,05,30,16,24,21.00
2007,05,30,16,25,21.10
2007,05,30,16,26,21.10
2007,05,30,16,27,21.20
2007,05,30,16,28,21.30
2007,05,30,16,29,21.30
2007,05,30,16,30,21.30
2007,05,30,16,31,21.20
2007,05,30,16,32,21.10
2007,05,30,16,33,21.10
2007,05,30,16,34,21.20
2007,05,30,16,35,21.20
2007,05,30,16,36,21.30
2007,05,30,16,37,21.40
2007,05,30,16,38,21.40
2007,05,30,16,39,21.50
2007,05,30,16,40,21.60
2007,05,30,16,41,21.60
2007,05,30,16,42,21.70
2007,05,30,16,43,21.70
2007,05,30,16,44,21.70
2007,05,30,16,45,21.80
2007,05,30,16,46,21.70
2007,05,30,16,47,21.70
2007,05,30,16,48,21.70
2007,05,30,16,49,21.70
2007,05,30,16,50,21.80
2007,05,30,16,51,21.70
2007,05,30,16,52,21.70
2007,05,30,16,53,21.70
2007,05,30,16,54,21.60
2007,05,30,16,55,21.60
2007,05,30,16,56,21.60
2007,05,30,16,57,21.60
2007,05,30,16,58,21.60
2007,05,30,16,59,21.60
2007,05,30,17,00,21.70
2007,05,30,17,01,21.80
2007,05,30,17,02,21.80
2007,05,30,17,03,21.80
2007,05,30,17,04,21.80
2007,05,30,17,05,21.90
2007,05,30,17,06,21.80
2007,05,30,17,07,22.00
2007,05,30,17,08,22.00
2007,05,30,17,09,22.10
2007,05,30,17,10,22.10
2007,05,30,17,11,22.20
2007,05,30,17,12,22.20
2007,05,30,17,13,22.10
2007,05,30,17,14,22.00
2007,05,30,17,15,21.70
2007,05,30,17,16,21.50
2007,05,30,17,17,21.30
2007,05,30,17,18,21.20
2007,05,30,17,19,21.10